When you browse on this site, cookies collect data to enhance your experience and personalize the content and advertising you see.
Visit our Privacy Policy to learn more. By continuing to use the site, you agree to this use of cookies and data.
  • In Hungary
  • List of Countries
  • For 7 days
  • Water Temperature
  • Satellite Maps
  • Weather Map
  • News
  • Weather Widgets
  • user-avatar
    Login

    Hourly Weather Vyzyrivka

    Today, 20 July, Saturday

    Time Temperature Precipitation Wind Pressure Humidity
    00:00 +15°C° 0 mm 2 mps 744 mmHg 88%
    01:00 +15°C° 0 mm 2 mps 744 mmHg 89%
    02:00 +15°C° 0 mm 2 mps 744 mmHg 90%
    03:00 +15°C° 0 mm 2 mps 744 mmHg 90%
    04:00 +15°C° 0 mm 2 mps 744 mmHg 91%
    05:00 +15°C° 0 mm 2 mps 745 mmHg 91%
    06:00 +17°C° 0 mm 3 mps 745 mmHg 86%
    07:00 +19°C° 0 mm 3 mps 745 mmHg 81%
    08:00 +20°C° 0 mm 3 mps 745 mmHg 76%
    09:00 +22°C° 0.2 mm 4 mps 745 mmHg 71%
    10:00 +23°C° 0.2 mm 4 mps 746 mmHg 66%
    11:00 +25°C° 0.2 mm 4 mps 746 mmHg 61%
    12:00 +25°C° 0.5 mm 4 mps 746 mmHg 62%
    13:00 +25°C° 0.5 mm 4 mps 746 mmHg 62%
    14:00 +26°C° 0.5 mm 4 mps 746 mmHg 62%
    15:00 +25°C° 0.3 mm 3 mps 746 mmHg 63%
    16:00 +25°C° 0.3 mm 3 mps 746 mmHg 65%
    17:00 +25°C° 0.3 mm 2 mps 746 mmHg 66%
    18:00 +23°C° 0.1 mm 2 mps 746 mmHg 71%
    19:00 +22°C° 0.1 mm 1 mps 746 mmHg 76%
    20:00 +20°C° 0.1 mm 1 mps 746 mmHg 81%
    21:00 +19°C° 0 mm 1 mps 746 mmHg 81%
    22:00 +17°C° 0 mm 0 mps 746 mmHg 82%
    23:00 +16°C° 0 mm 0 mps 746 mmHg 82%

    Tomorrow, 21 July, Sunday

    Time Temperature Precipitation Wind Pressure Humidity
    00:00 +16°C° 0 mm 0 mps 746 mmHg 82%
    01:00 +16°C° 0 mm 0 mps 746 mmHg 83%
    02:00 +16°C° 0 mm 0 mps 746 mmHg 83%
    03:00 +16°C° 0 mm 0 mps 746 mmHg 83%
    04:00 +16°C° 0 mm 0 mps 746 mmHg 83%
    05:00 +16°C° 0 mm 0 mps 746 mmHg 83%
    06:00 +20°C° 0.1 mm 1 mps 746 mmHg 78%
    07:00 +21°C° 0.1 mm 1 mps 746 mmHg 73%
    08:00 +23°C° 0.1 mm 1 mps 746 mmHg 69%
    09:00 +24°C° 0.2 mm 1 mps 746 mmHg 66%
    10:00 +24°C° 0.2 mm 1 mps 746 mmHg 64%
    11:00 +25°C° 0.2 mm 1 mps 746 mmHg 62%
    12:00 +25°C° 0.3 mm 1 mps 746 mmHg 61%
    13:00 +26°C° 0.3 mm 2 mps 746 mmHg 60%
    14:00 +26°C° 0.3 mm 2 mps 745 mmHg 59%
    15:00 +26°C° 0.2 mm 1 mps 745 mmHg 59%
    16:00 +26°C° 0.2 mm 1 mps 745 mmHg 60%
    17:00 +24°C° 0.2 mm 0 mps 745 mmHg 60%
    18:00 +22°C° 0 mm 0 mps 745 mmHg 66%
    19:00 +23°C° 0 mm 1 mps 745 mmHg 72%
    20:00 +21°C° 0 mm 1 mps 745 mmHg 78%
    21:00 +20°C° 0 mm 1 mps 745 mmHg 80%
    22:00 +20°C° 0 mm 1 mps 745 mmHg 82%
    23:00 +19°C° 0 mm 1 mps 745 mmHg 84%

    Day after tomorrow, 22 July, Monday

    Time Temperature Precipitation Wind Pressure Humidity
    00:00 +19°C° 0 mm 1 mps 745 mmHg 85%
    01:00 +19°C° 0 mm 1 mps 744 mmHg 87%
    02:00 +18°C° 0 mm 1 mps 744 mmHg 88%
    03:00 +18°C° 0 mm 1 mps 744 mmHg 89%
    04:00 +18°C° 0 mm 1 mps 744 mmHg 90%
    05:00 +18°C° 0 mm 1 mps 744 mmHg 91%
    06:00 +20°C° 0 mm 1 mps 744 mmHg 85%
    07:00 +22°C° 0 mm 1 mps 744 mmHg 80%
    08:00 +24°C° 0 mm 2 mps 744 mmHg 74%
    09:00 +25°C° 0.8 mm 2 mps 743 mmHg 72%
    10:00 +26°C° 0.8 mm 3 mps 743 mmHg 69%
    11:00 +27°C° 0.8 mm 3 mps 743 mmHg 67%
    12:00 +26°C° 0.8 mm 3 mps 743 mmHg 72%
    13:00 +25°C° 0.8 mm 3 mps 742 mmHg 77%
    14:00 +24°C° 0.8 mm 2 mps 742 mmHg 83%
    15:00 +24°C° 0.6 mm 3 mps 742 mmHg 82%
    16:00 +24°C° 0.6 mm 3 mps 742 mmHg 81%
    17:00 +25°C° 0.6 mm 4 mps 741 mmHg 80%
    18:00 +22°C° 0.2 mm 3 mps 741 mmHg 84%
    19:00 +21°C° 0.2 mm 3 mps 741 mmHg 88%
    20:00 +19°C° 0.2 mm 2 mps 741 mmHg 92%
    21:00 +19°C° 0 mm 2 mps 741 mmHg 93%
    22:00 +18°C° 0 mm 2 mps 740 mmHg 95%
    23:00 +18°C° 0 mm 2 mps 740 mmHg 96%

    23 July, Tuesday

    Time Temperature Precipitation Wind Pressure Humidity
    00:00 +17°C° 0 mm 2 mps 740 mmHg 97%
    01:00 +17°C° 0 mm 2 mps 740 mmHg 97%
    02:00 +17°C° 0 mm 2 mps 740 mmHg 98%
    03:00 +16°C° 0 mm 2 mps 740 mmHg 98%
    04:00 +16°C° 0 mm 3 mps 740 mmHg 98%
    05:00 +16°C° 0 mm 3 mps 739 mmHg 98%
    06:00 +17°C° 0 mm 3 mps 739 mmHg 93%
    07:00 +18°C° 0 mm 3 mps 739 mmHg 88%
    08:00 +19°C° 0 mm 3 mps 739 mmHg 83%
    09:00 +20°C° 0.1 mm 3 mps 739 mmHg 80%
    10:00 +20°C° 0.1 mm 3 mps 739 mmHg 77%
    11:00 +21°C° 0.1 mm 3 mps 739 mmHg 75%
    12:00 +21°C° 0.6 mm 3 mps 739 mmHg 73%
    13:00 +22°C° 0.6 mm 4 mps 739 mmHg 72%
    14:00 +22°C° 0.6 mm 4 mps 739 mmHg 70%
    15:00 +22°C° 0.2 mm 4 mps 739 mmHg 71%
    16:00 +21°C° 0.2 mm 3 mps 739 mmHg 72%
    17:00 +21°C° 0.2 mm 3 mps 738 mmHg 72%
    18:00 +20°C° 0.1 mm 3 mps 738 mmHg 77%
    19:00 +19°C° 0.1 mm 2 mps 738 mmHg 83%
    20:00 +17°C° 0.1 mm 2 mps 738 mmHg 88%
    21:00 +17°C° 0 mm 2 mps 738 mmHg 90%
    22:00 +16°C° 0 mm 2 mps 738 mmHg 92%
    23:00 +15°C° 0 mm 2 mps 738 mmHg 94%

    24 July, Wednesday

    Time Temperature Precipitation Wind Pressure Humidity
    00:00 +15°C° 0 mm 1 mps 738 mmHg 94%
    01:00 +14°C° 0 mm 1 mps 738 mmHg 95%
    02:00 +13°C° 0 mm 0 mps 738 mmHg 95%
    03:00 +14°C° 0 mm 1 mps 738 mmHg 95%
    04:00 +14°C° 0 mm 1 mps 738 mmHg 95%
    05:00 +14°C° 0 mm 1 mps 738 mmHg 96%
    06:00 +16°C° 0 mm 1 mps 738 mmHg 90%
    07:00 +18°C° 0 mm 2 mps 739 mmHg 85%
    08:00 +19°C° 0 mm 2 mps 739 mmHg 79%
    09:00 +20°C° 0 mm 2 mps 739 mmHg 74%
    10:00 +21°C° 0 mm 3 mps 739 mmHg 69%
    11:00 +24°C° 0 mm 3 mps 739 mmHg 64%
    12:00 +23°C° 0.6 mm 4 mps 739 mmHg 67%
    13:00 +23°C° 0.6 mm 4 mps 740 mmHg 70%
    14:00 +23°C° 0.6 mm 5 mps 740 mmHg 72%
    15:00 +22°C° 0.3 mm 5 mps 740 mmHg 71%
    16:00 +22°C° 0.3 mm 5 mps 740 mmHg 70%
    17:00 +22°C° 0.3 mm 5 mps 740 mmHg 69%
    18:00 +20°C° 0 mm 4 mps 740 mmHg 74%
    19:00 +19°C° 0 mm 3 mps 740 mmHg 79%
    20:00 +17°C° 0 mm 2 mps 741 mmHg 84%
    21:00 +17°C° 0 mm 2 mps 741 mmHg 86%
    22:00 +16°C° 0 mm 2 mps 741 mmHg 89%
    23:00 +16°C° 0 mm 2 mps 741 mmHg 91%

    25 July, Thursday

    Time Temperature Precipitation Wind Pressure Humidity
    00:00 +16°C° 0 mm 2 mps 741 mmHg 92%
    01:00 +15°C° 0 mm 2 mps 741 mmHg 93%
    02:00 +15°C° 0 mm 2 mps 741 mmHg 94%
    03:00 +15°C° 0 mm 2 mps 741 mmHg 93%
    04:00 +15°C° 0 mm 2 mps 741 mmHg 93%
    05:00 +15°C° 0 mm 2 mps 741 mmHg 93%
    06:00 +17°C° 0 mm 3 mps 742 mmHg 88%
    07:00 +19°C° 0 mm 3 mps 742 mmHg 82%
    08:00 +21°C° 0 mm 3 mps 742 mmHg 77%
    09:00 +22°C° 0.3 mm 4 mps 742 mmHg 73%
    10:00 +23°C° 0.3 mm 4 mps 742 mmHg 68%
    11:00 +25°C° 0.3 mm 4 mps 742 mmHg 63%
    12:00 +25°C° 0.1 mm 4 mps 742 mmHg 62%
    13:00 +25°C° 0.1 mm 5 mps 741 mmHg 61%
    14:00 +26°C° 0.1 mm 5 mps 741 mmHg 60%
    15:00 +25°C° 0.3 mm 5 mps 741 mmHg 64%
    16:00 +25°C° 0.3 mm 5 mps 741 mmHg 67%
    17:00 +23°C° 0.3 mm 5 mps 741 mmHg 71%
    18:00 +22°C° 0.3 mm 4 mps 741 mmHg 77%
    19:00 +20°C° 0.3 mm 4 mps 740 mmHg 83%
    20:00 +18°C° 0.3 mm 3 mps 740 mmHg 89%
    21:00 +18°C° 0 mm 3 mps 740 mmHg 91%
    22:00 +17°C° 0 mm 3 mps 740 mmHg 92%
    23:00 +16°C° 0 mm 3 mps 740 mmHg 93%
    Show more